M I D A S
Marine Information and Data Acquisition System
Tripno 411 of the Zeeleeuw from 2003-01-08 07:41:15 to 2003-01-08 14:00:47
Back to CruiseResearch ActivitiesStationsMapUnderway DataData graphs

EquipmentUnitsComments
TimeDGPSUTC
LatitudeDGPSDM.mWGS84
LongitudeDGPSDM.mWGS84
SpeedMeteo Stationm/sRelative wind speed
DirectionMeteo StationdegRelative wind direction
TemperatureMeteo Stationdeg CelciusAir temperature
PressureMeteo StationPaAtmospheric pressure
HumidityMeteo Station%Relative humidity
Missing or incorrect values are displayed as -999
Metereological data collected by the RV Zeeleeuw from 2003-01-08 07:41:15 to 2003-01-08 14:00:47
Time Latitude Longitude Speed Direction Temperature Pressure Humidity
2003-01-08 07:42 51°13.662 2°55.881 2.1 302 -4.8 101670 78
2003-01-08 07:43 51°13.686 2°55.784 2.3 241 -4.8 101670 78
2003-01-08 07:44 51°13.695 2°55.725 2.9 203 -4.9 101670 77
2003-01-08 07:45 51°13.711 2°55.723 4.3 156 -4.8 101670 77
2003-01-08 07:46 51°13.766 2°55.683 3.8 148 -4.8 101670 78
2003-01-08 07:47 51°13.84 2°55.629 3.1 211 -4.8 101680 77
2003-01-08 07:48 51°13.937 2°55.559 2.6 187 -4.8 101670 77
2003-01-08 07:49 51°14.044 2°55.483 3.4 188 -4.8 101670 78
2003-01-08 07:50 51°14.165 2°55.38 3.2 183 -4.8 101670 78
2003-01-08 07:51 51°14.273 2°55.234 2.3 183 -4.8 101670 78
2003-01-08 07:52 51°14.36 2°55.053 3.1 134 -4.8 101670 79
2003-01-08 07:53 51°14.478 2°54.825 5.2 175 -4.7 101670 79
2003-01-08 07:54 51°14.638 2°54.611 5.9 178 -4.6 101670 79
2003-01-08 07:55 51°14.81 2°54.447 6.8 175 -4.5 101670 80
2003-01-08 07:56 51°14.998 2°54.266 6.3 165 -4.5 101670 78
2003-01-08 07:57 51°15.174 2°54.093 7.5 174 -4.3 101670 79
2003-01-08 07:58 51°15.351 2°53.927 7.3 157 -4.2 101670 78
2003-01-08 07:59 51°15.529 2°53.763 6.1 157 -4.2 101670 78
2003-01-08 08:00 51°15.72 2°53.588 7.5 148 -4.1 101660 79
2003-01-08 08:01 51°15.924 2°53.4 7.7 172 -3.9 101660 78
2003-01-08 08:02 51°16.131 2°53.211 8.8 154 -3.9 101660 78
2003-01-08 08:03 51°16.338 2°53.024 8.5 155 -3.8 101670 78
2003-01-08 08:04 51°16.545 2°52.836 8.5 151 -3.8 101670 78
2003-01-08 08:05 51°16.75 2°52.653 7.3 159 -3.7 101660 78
2003-01-08 08:06 51°16.958 2°52.481 9.9 152 -3.6 101660 78
2003-01-08 08:07 51°17.169 2°52.32 8.3 163 -3.6 101660 78
2003-01-08 08:08 51°17.38 2°52.153 6.5 147 -3.4 101650 79
2003-01-08 08:09 51°17.591 2°51.988 7.6 152 -3.4 101660 78
2003-01-08 08:10 51°17.802 2°51.823 7.7 150 -3.4 101670 78
2003-01-08 08:11 51°18.013 2°51.657 8.8 159 -3.2 101670 80
2003-01-08 08:12 51°18.226 2°51.487 8.9 159 -3.3 101670 78
2003-01-08 08:13 51°18.438 2°51.314 6.8 162 -3.3 101670 77
2003-01-08 08:14 51°18.656 2°51.176 9.9 171 -3.3 101660 78
2003-01-08 08:15 51°18.881 2°51.084 9.6 177 -3.2 101650 78
2003-01-08 08:16 51°19.107 2°50.999 9.2 166 -3.2 101650 78
2003-01-08 08:17 51°19.334 2°50.903 8.6 172 -3.1 101660 79
2003-01-08 08:18 51°19.538 2°50.706 6.9 152 -3.1 101670 78
2003-01-08 08:19 51°19.74 2°50.495 7.8 168 -2.9 101670 79
2003-01-08 08:20 51°19.944 2°50.283 7.1 169 -3 101670 77
2003-01-08 08:21 51°20.15 2°50.073 7.3 164 -2.9 101680 78
2003-01-08 08:22 51°20.357 2°49.864 8.5 170 -2.8 101680 79
2003-01-08 08:23 51°20.573 2°49.642 8.1 162 -2.7 101680 78
2003-01-08 08:24 51°20.797 2°49.451 9.5 176 -2.6 101670 78
2003-01-08 08:25 51°21.019 2°49.318 8.6 162 -2.6 101670 79
2003-01-08 08:26 51°21.246 2°49.216 8.9 171 -2.5 101650 78
2003-01-08 08:27 51°21.478 2°49.146 9.1 180 -2.5 101660 79
2003-01-08 08:28 51°21.712 2°49.098 9.6 177 -2.4 101660 79
2003-01-08 08:29 51°21.956 2°49.049 11.4 172 -2.3 101650 80
2003-01-08 08:30 51°22.208 2°49.031 10.1 193 -2.2 101650 80
2003-01-08 08:31 51°22.443 2°49.016 12.8 175 -2.2 101650 77
2003-01-08 08:32 51°22.679 2°49.002 10.3 176 -2.1 101650 78
2003-01-08 08:33 51°22.914 2°48.988 13.8 173 -1.9 101660 78
2003-01-08 08:34 51°23.156 2°48.965 10.3 188 -2 101650 75
2003-01-08 08:35 51°23.404 2°48.939 9.3 189 -1.8 101650 73
2003-01-08 08:36 51°23.633 2°48.917 10.8 187 -1.8 101650 73
2003-01-08 08:37 51°23.861 2°48.894 10.6 185 -1.9 101650 68
2003-01-08 08:38 51°24.099 2°48.872 9.8 185 -1.9 101660 67
2003-01-08 08:39 51°24.343 2°48.833 12 180 -1.9 101660 67
2003-01-08 08:40 51°24.573 2°48.795 10.6 179 -1.9 101650 68
2003-01-08 08:41 51°24.806 2°48.755 10.8 180 -1.9 101650 65
2003-01-08 08:42 51°25.038 2°48.713 10.7 171 -2 101660 65
2003-01-08 08:43 51°25.269 2°48.661 11.3 180 -1.8 101650 70
2003-01-08 08:44 51°25.499 2°48.605 9.9 180 -1.8 101660 69
2003-01-08 08:45 51°25.73 2°48.551 9.7 176 -1.9 101670 71
2003-01-08 08:46 51°25.962 2°48.493 11.8 180 -1.9 101660 69
2003-01-08 08:47 51°26.195 2°48.442 10.6 181 -1.9 101660 70
2003-01-08 08:48 51°26.429 2°48.393 9.7 184 -1.8 101670 72
2003-01-08 08:49 51°26.664 2°48.343 9.2 188 -1.8 101660 72
2003-01-08 08:50 51°26.899 2°48.295 11.6 178 -1.7 101660 71
2003-01-08 08:51 51°27.129 2°48.198 12.3 175 -1.7 101660 72
2003-01-08 08:52 51°27.354 2°48.082 9 178 -1.8 101660 71
2003-01-08 08:53 51°27.582 2°47.966 9.8 174 -1.7 101660 74
2003-01-08 08:54 51°27.806 2°47.844 11.1 171 -1.6 101660 73
2003-01-08 08:55 51°28.031 2°47.723 10.8 172 -1.5 101660 75
2003-01-08 08:56 51°28.267 2°47.594 10.6 168 -1.5 101670 73
2003-01-08 08:57 51°28.506 2°47.469 13.3 163 -1.6 101670 70
2003-01-08 08:58 51°28.722 2°47.355 11.5 162 -1.6 101680 70
2003-01-08 08:59 51°28.972 2°47.226 10.8 178 -1.5 101680 73
2003-01-08 09:00 51°29.198 2°47.107 12.5 173 -1.5 101670 70
2003-01-08 09:01 51°29.425 2°46.992 12 177 -1.6 101680 68
2003-01-08 09:02 51°29.652 2°46.877 9.5 172 -1.5 101670 71
2003-01-08 09:03 51°29.877 2°46.757 10.7 175 -1.5 101680 74
2003-01-08 09:04 51°30.105 2°46.639 10.6 167 -1.6 101680 68
2003-01-08 09:05 51°30.331 2°46.52 11.1 166 -1.5 101680 70
2003-01-08 09:06 51°30.551 2°46.395 11.4 175 -1.4 101690 72
2003-01-08 09:07 51°30.771 2°46.275 11.3 168 -1.4 101680 71
2003-01-08 09:08 51°30.995 2°46.159 10.5 171 -1.4 101680 70
2003-01-08 09:09 51°31.215 2°46.041 11.7 171 -1.3 101680 74
2003-01-08 09:10 51°31.436 2°45.918 10.7 170 -1.2 101680 75
2003-01-08 09:11 51°31.654 2°45.795 8.1 181 -1.2 101680 74
2003-01-08 09:12 51°31.871 2°45.671 10.5 178 -1.3 101680 74
2003-01-08 09:13 51°32.091 2°45.551 10.3 163 -1.3 101680 76
2003-01-08 09:14 51°32.312 2°45.433 10.7 166 -1.3 101690 75
2003-01-08 09:15 51°32.535 2°45.312 9 176 -1.3 101690 76
2003-01-08 09:16 51°32.756 2°45.191 10 169 -1.3 101700 76
2003-01-08 09:17 51°32.977 2°45.069 11.2 177 -1.3 101700 77
2003-01-08 09:18 51°33.2 2°44.967 8.9 159 -1.3 101690 77
2003-01-08 09:19 51°33.424 2°44.858 9.7 166 -1.3 101690 76
2003-01-08 09:20 51°33.647 2°44.749 8.9 178 -1.2 101680 78
2003-01-08 09:21 51°33.87 2°44.635 7.8 182 -1.2 101690 78
2003-01-08 09:22 51°34.098 2°44.531 9.6 177 -1.2 101690 77
2003-01-08 09:23 51°34.325 2°44.426 9.2 169 -1.3 101690 77
2003-01-08 09:24 51°34.553 2°44.32 9.1 178 -1.2 101700 78
2003-01-08 09:26 51°34.789 2°44.204 10.8 168 -1.1 101690 77
2003-01-08 09:27 51°35.01 2°44.094 9.5 167 -1 101700 78
2003-01-08 09:28 51°35.233 2°43.989 8.5 176 -1 101710 77
2003-01-08 09:29 51°35.456 2°43.889 7.3 173 -1.1 101700 77
2003-01-08 09:30 51°35.678 2°43.784 9.8 167 -1 101700 79
2003-01-08 09:31 51°35.897 2°43.679 10.3 176 -1 101700 78
2003-01-08 09:32 51°36.135 2°43.572 9.8 165 -1 101690 77
2003-01-08 09:33 51°36.342 2°43.475 8.8 177 -0.9 101700 78
2003-01-08 09:34 51°36.579 2°43.36 8.9 171 -0.9 101710 79
2003-01-08 09:35 51°36.801 2°43.256 11.1 176 -0.9 101700 79
2003-01-08 09:36 51°37.022 2°43.154 10.4 173 -0.7 101690 80
2003-01-08 09:37 51°37.244 2°43.056 8.6 175 -0.7 101690 80
2003-01-08 09:38 51°37.467 2°42.961 9 175 -0.7 101700 80
2003-01-08 09:39 51°37.704 2°42.849 11.3 166 -0.4 101680 82
2003-01-08 09:40 51°37.932 2°42.774 8.8 182 -0.5 101680 79
2003-01-08 09:41 51°38.176 2°42.703 9.5 180 -0.6 101680 77
2003-01-08 09:42 51°38.397 2°42.633 10 176 -0.6 101700 78
2003-01-08 09:43 51°38.621 2°42.569 9.8 189 -0.7 101680 74
2003-01-08 09:44 51°38.872 2°42.505 11.6 171 -0.6 101690 72
2003-01-08 09:45 51°39.097 2°42.44 11 177 -0.7 101690 70
2003-01-08 09:46 51°39.321 2°42.374 7.8 183 -0.7 101690 70
2003-01-08 09:47 51°39.546 2°42.323 8 189 -0.8 101690 70
2003-01-08 09:48 51°39.771 2°42.271 11.3 177 -0.7 101690 73
2003-01-08 09:49 51°39.996 2°42.218 10.6 174 -0.7 101680 71
2003-01-08 09:50 51°40.221 2°42.164 10 176 -0.7 101700 71
2003-01-08 09:51 51°40.438 2°42.11 8.4 169 -0.7 101680 69
2003-01-08 09:52 51°40.669 2°42.041 10.8 177 -0.7 101700 72
2003-01-08 09:53 51°40.893 2°41.979 10.2 170 -0.7 101690 70
2003-01-08 09:54 51°41.116 2°41.924 9.1 188 -0.7 101690 69
2003-01-08 09:55 51°41.34 2°41.891 12.2 174 -0.7 101690 69
2003-01-08 09:56 51°41.563 2°41.881 11.4 176 -0.6 101680 69
2003-01-08 09:57 51°41.787 2°41.871 7.3 185 -0.7 101690 69
2003-01-08 09:58 51°41.989 2°41.854 8.9 147 -0.6 101690 70
2003-01-08 09:59 51°42.101 2°41.827 7 155 -0.6 101690 69
2003-01-08 10:00 51°42.146 2°41.82 8.4 170 -0.5 101710 72
2003-01-08 10:01 51°42.159 2°41.809 6.4 175 -0.6 101700 70
2003-01-08 10:02 51°42.165 2°41.795 9.1 177 -0.7 101700 70
2003-01-08 10:03 51°42.168 2°41.771 7.2 164 -0.6 101690 68
2003-01-08 10:04 51°42.168 2°41.744 6.5 174 -0.6 101700 69
2003-01-08 10:05 51°42.167 2°41.713 5.9 147 -0.7 101700 69
2003-01-08 10:06 51°42.163 2°41.679 7.9 147 -0.6 101700 70
2003-01-08 10:07 51°42.158 2°41.643 7.2 129 -0.6 101700 69
2003-01-08 10:08 51°42.154 2°41.606 7.5 100 -0.5 101710 72
2003-01-08 10:09 51°42.149 2°41.569 7.3 118 -0.5 101710 70
2003-01-08 10:10 51°42.145 2°41.533 5.9 148 -0.5 101710 71
2003-01-08 10:11 51°42.151 2°41.499 7.4 156 -0.4 101700 73
2003-01-08 10:12 51°42.176 2°41.497 7.1 184 -0.2 101700 73
2003-01-08 10:13 51°42.191 2°41.65 14.2 243 -0.5 101700 70
2003-01-08 10:14 51°42.043 2°41.835 12.3 266 -0.4 101690 70
2003-01-08 10:15 51°41.85 2°41.996 12.7 265 -0.4 101690 71
2003-01-08 10:16 51°41.659 2°42.151 13.1 269 -0.4 101680 69
2003-01-08 10:17 51°41.464 2°42.297 14.9 275 -0.4 101670 69
2003-01-08 10:18 51°41.27 2°42.446 13.9 272 -0.4 101680 69
2003-01-08 10:19 51°41.077 2°42.596 13.7 266 -0.4 101680 68
2003-01-08 10:20 51°40.884 2°42.744 13 271 -0.4 101670 67
2003-01-08 10:21 51°40.69 2°42.891 13.8 258 -0.4 101680 68
2003-01-08 10:22 51°40.496 2°43.034 15.5 256 -0.4 101670 68
2003-01-08 10:23 51°40.301 2°43.18 12.8 262 -0.3 101660 68
2003-01-08 10:24 51°40.106 2°43.33 15.4 265 -0.3 101660 69
2003-01-08 10:25 51°39.909 2°43.475 13.8 260 -0.3 101670 69
2003-01-08 10:26 51°39.711 2°43.624 14.9 257 -0.4 101670 67
2003-01-08 10:27 51°39.515 2°43.775 14.2 263 -0.3 101670 69
2003-01-08 10:28 51°39.318 2°43.927 14.4 254 -0.2 101670 71
2003-01-08 10:29 51°39.119 2°44.072 14.1 260 -0.1 101660 72
2003-01-08 10:30 51°38.921 2°44.221 13.8 272 -0.2 101660 70
2003-01-08 10:31 51°38.726 2°44.367 14 260 -0.2 101650 72
2003-01-08 10:32 51°38.525 2°44.514 13.8 268 -0.2 101660 71
2003-01-08 10:33 51°38.326 2°44.653 13.3 268 -0.4 101640 71
2003-01-08 10:34 51°38.127 2°44.797 14 257 -0.4 101660 72
2003-01-08 10:35 51°37.927 2°44.942 15.2 262 -0.4 101660 73
2003-01-08 10:36 51°37.726 2°45.085 13.4 273 -0.5 101650 71
2003-01-08 10:37 51°37.529 2°45.227 14.3 265 -0.5 101650 73
2003-01-08 10:38 51°37.328 2°45.37 13.7 265 -0.6 101660 72
2003-01-08 10:39 51°37.131 2°45.515 13.8 262 -0.6 101660 73
2003-01-08 10:40 51°36.931 2°45.657 13.5 259 -0.6 101650 73
2003-01-08 10:41 51°36.735 2°45.801 13.2 257 -0.5 101660 75
2003-01-08 10:42 51°36.539 2°45.946 14.9 262 -0.7 101670 73
2003-01-08 10:43 51°36.343 2°46.088 14.2 262 -0.7 101650 74
2003-01-08 10:44 51°36.148 2°46.229 14.7 258 -0.7 101660 75
2003-01-08 10:45 51°35.95 2°46.358 13.6 259 -0.7 101650 74
2003-01-08 10:46 51°35.756 2°46.502 13.4 268 -0.8 101650 73
2003-01-08 10:47 51°35.572 2°46.681 14.7 254 -0.8 101660 72
2003-01-08 10:48 51°35.391 2°46.863 16.3 263 -0.8 101650 71
2003-01-08 10:49 51°35.207 2°47.041 12.7 267 -0.8 101650 70
2003-01-08 10:50 51°35.063 2°47.182 13 264 -0.7 101660 72
2003-01-08 10:51 51°34.985 2°47.253 11.2 264 -0.9 101670 67
2003-01-08 10:52 51°34.925 2°47.3 8.6 255 -0.9 101640 67
2003-01-08 10:53 51°34.871 2°47.356 10.8 255 -0.9 101660 71
2003-01-08 10:54 51°34.828 2°47.392 8.2 268 -0.8 101680 71
2003-01-08 10:55 51°34.805 2°47.371 9.2 257 -0.8 101650 69
2003-01-08 10:56 51°34.782 2°47.339 9 268 -0.8 101670 69
2003-01-08 10:57 51°34.756 2°47.305 6.9 267 -0.9 101660 68
2003-01-08 10:58 51°34.727 2°47.272 9.5 281 -0.8 101680 71
2003-01-08 10:59 51°34.684 2°47.24 9.3 280 -0.8 101680 70
2003-01-08 11:00 51°34.639 2°47.229 8 257 -0.9 101660 70
2003-01-08 11:01 51°34.609 2°47.25 9.8 237 -0.9 101660 70
2003-01-08 11:02 51°34.593 2°47.262 7.8 223 -0.8 101670 71
2003-01-08 11:03 51°34.589 2°47.278 9.8 210 -1 101670 69
2003-01-08 11:04 51°34.599 2°47.312 10.7 220 -1.2 101650 66
2003-01-08 11:05 51°34.531 2°47.463 12.4 264 -1.1 101650 69
2003-01-08 11:06 51°34.321 2°47.539 13.3 271 -1 101640 70
2003-01-08 11:07 51°34.08 2°47.583 13.3 264 -1.1 101640 70
2003-01-08 11:08 51°33.834 2°47.592 15.1 276 -1 101640 72
2003-01-08 11:09 51°33.584 2°47.563 13.1 280 -1.1 101630 68
2003-01-08 11:10 51°33.335 2°47.524 14.3 280 -1.1 101630 69
2003-01-08 11:11 51°33.085 2°47.483 12.5 287 -1.1 101620 67
2003-01-08 11:12 51°32.837 2°47.449 13.2 279 -1.1 101620 68
2003-01-08 11:13 51°32.589 2°47.418 12.2 278 -1.2 101630 67
2003-01-08 11:14 51°32.339 2°47.378 10.6 270 -1.2 101630 68
2003-01-08 11:15 51°32.089 2°47.346 13.5 285 -1.2 101630 67
2003-01-08 11:16 51°31.84 2°47.317 14 278 -1.3 101630 66
2003-01-08 11:17 51°31.593 2°47.277 14 280 -1.4 101630 66
2003-01-08 11:18 51°31.346 2°47.25 12.3 282 -1.4 101620 65
2003-01-08 11:19 51°31.099 2°47.258 15.4 280 -1.5 101630 65
2003-01-08 11:20 51°30.857 2°47.273 14.6 282 -1.5 101610 61
2003-01-08 11:21 51°30.618 2°47.306 15.6 266 -1.5 101620 63
2003-01-08 11:22 51°30.387 2°47.366 15.5 276 -1.5 101610 63
2003-01-08 11:23 51°30.288 2°47.461 10.3 224 -1.6 101640 60
2003-01-08 11:24 51°30.308 2°47.511 12.4 197 -1.4 101640 65
2003-01-08 11:25 51°30.342 2°47.56 11.4 218 -1.8 101640 59
2003-01-08 11:26 51°30.354 2°47.647 13.6 223 -1.6 101640 65
2003-01-08 11:27 51°30.373 2°47.759 13.2 203 -1.7 101630 62
2003-01-08 11:28 51°30.402 2°47.847 12.8 209 -1.7 101620 62
2003-01-08 11:29 51°30.394 2°47.846 10.1 224 -1.8 101640 61
2003-01-08 11:30 51°30.378 2°47.821 10 241 -1.7 101630 60
2003-01-08 11:31 51°30.357 2°47.789 8.7 245 -1.7 101630 61
2003-01-08 11:32 51°30.332 2°47.756 11 255 -1.7 101630 59
2003-01-08 11:33 51°30.304 2°47.747 10.6 237 -1.7 101630 60
2003-01-08 11:34 51°30.295 2°47.741 8.7 193 -1.7 101640 60
2003-01-08 11:35 51°30.363 2°47.838 14.3 217 -1.7 101610 63
2003-01-08 11:36 51°30.298 2°48.046 15.4 272 -1.7 101620 62
2003-01-08 11:37 51°30.1 2°48.057 11.7 279 -1.7 101630 59
2003-01-08 11:38 51°29.888 2°48.055 11.9 284 -1.6 101620 60
2003-01-08 11:39 51°29.662 2°48.051 10.3 282 -1.6 101620 61
2003-01-08 11:40 51°29.436 2°48.048 11.7 286 -1.6 101620 63
2003-01-08 11:41 51°29.209 2°48.057 15 279 -1.6 101620 61
2003-01-08 11:42 51°28.966 2°48.088 11.7 274 -1.7 101620 59
2003-01-08 11:43 51°28.72 2°48.119 12 276 -1.7 101610 60
2003-01-08 11:44 51°28.475 2°48.139 14.2 283 -1.7 101610 61
2003-01-08 11:45 51°28.232 2°48.16 14 281 -1.7 101610 63
2003-01-08 11:46 51°27.991 2°48.204 13.6 285 -1.8 101600 60
2003-01-08 11:47 51°27.751 2°48.254 14.9 273 -1.7 101600 62
2003-01-08 11:48 51°27.51 2°48.309 11.8 273 -1.8 101610 61
2003-01-08 11:49 51°27.271 2°48.365 13.9 271 -1.7 101600 63
2003-01-08 11:50 51°27.034 2°48.421 13.5 274 -1.7 101600 62
2003-01-08 11:51 51°26.796 2°48.472 12.1 281 -1.8 101600 57
2003-01-08 11:52 51°26.555 2°48.521 12.3 274 -1.8 101600 62
2003-01-08 11:53 51°26.326 2°48.578 14.1 278 -1.7 101590 61
2003-01-08 11:54 51°26.167 2°48.628 12.2 268 -1.8 101620 58
2003-01-08 11:55 51°26.058 2°48.676 11.1 288 -1.9 101620 59
2003-01-08 11:56 51°25.976 2°48.61 4.2 11 -1.9 101630 58
2003-01-08 11:57 51°25.968 2°48.454 6.6 119 -1.8 101640 62
2003-01-08 11:58 51°26.02 2°48.414 9.7 199 -1.8 101620 60
2003-01-08 11:59 51°26.042 2°48.485 9.6 213 -1.9 101610 58
2003-01-08 12:00 51°26.047 2°48.516 8.7 212 -2.1 101620 57
2003-01-08 12:01 51°26.048 2°48.539 10.1 224 -2.1 101620 61
2003-01-08 12:02 51°26.05 2°48.558 9 213 -2 101620 60
2003-01-08 12:03 51°26.053 2°48.56 9.6 199 -2.1 101610 59
2003-01-08 12:04 51°26.056 2°48.554 8.3 207 -2.1 101610 59
2003-01-08 12:05 51°26.057 2°48.547 9.7 208 -2 101610 60
2003-01-08 12:06 51°26.056 2°48.534 9 206 -2.1 101600 56
2003-01-08 12:07 51°26.064 2°48.551 13.2 217 -2.1 101610 61
2003-01-08 12:08 51°26.07 2°48.586 10.3 208 -2.2 101590 58
2003-01-08 12:09 51°26.094 2°48.65 12.4 211 -2.1 101600 57
2003-01-08 12:10 51°26.128 2°48.726 10.7 204 -2.2 101590 54
2003-01-08 12:11 51°26.157 2°48.857 14 238 -2.1 101600 62
2003-01-08 12:12 51°26.001 2°48.99 14.6 280 -1.9 101570 61
2003-01-08 12:13 51°25.773 2°49.049 13.4 271 -1.9 101580 60
2003-01-08 12:14 51°25.542 2°49.115 13.6 271 -2 101590 55
2003-01-08 12:15 51°25.31 2°49.175 12 280 -2 101590 57
2003-01-08 12:16 51°25.078 2°49.234 13.4 279 -2 101570 58
2003-01-08 12:17 51°24.847 2°49.288 12.1 282 -1.9 101560 60
2003-01-08 12:18 51°24.612 2°49.344 13.7 274 -2 101590 62
2003-01-08 12:19 51°24.377 2°49.404 11.2 267 -1.9 101580 62
2003-01-08 12:20 51°24.141 2°49.453 11.7 268 -1.9 101580 62
2003-01-08 12:21 51°23.901 2°49.472 12.2 278 -1.8 101580 63
2003-01-08 12:22 51°23.656 2°49.465 10 280 -1.9 101580 60
2003-01-08 12:23 51°23.41 2°49.456 11.5 277 -1.9 101580 60
2003-01-08 12:24 51°23.161 2°49.455 13.8 285 -1.9 101560 61
2003-01-08 12:25 51°22.915 2°49.466 11.9 282 -1.8 101570 62
2003-01-08 12:26 51°22.668 2°49.477 12.8 283 -1.8 101570 63
2003-01-08 12:27 51°22.426 2°49.491 13 280 -1.8 101570 62
2003-01-08 12:28 51°22.293 2°49.556 13.5 260 -1.8 101570 59
2003-01-08 12:29 51°22.254 2°49.661 10.8 224 -1.8 101590 58
2003-01-08 12:30 51°22.274 2°49.715 9.5 211 -1.9 101580 56
2003-01-08 12:31 51°22.284 2°49.735 10.5 210 -2 101590 60
2003-01-08 12:32 51°22.286 2°49.734 9.5 209 -2 101570 56
2003-01-08 12:33 51°22.283 2°49.714 8 182 -2.1 101580 58
2003-01-08 12:34 51°22.277 2°49.682 6.6 175 -2.1 101560 59
2003-01-08 12:35 51°22.269 2°49.644 8 158 -1.9 101580 62
2003-01-08 12:36 51°22.306 2°49.596 7.7 141 -2 101580 61
2003-01-08 12:37 51°22.361 2°49.438 4.1 72 -1.9 101600 63
2003-01-08 12:38 51°22.301 2°49.22 2.8 319 -1.8 101580 65
2003-01-08 12:39 51°22.102 2°49.157 11.6 291 -1.7 101560 64
2003-01-08 12:40 51°21.875 2°49.201 14.5 272 -1.7 101550 64
2003-01-08 12:41 51°21.652 2°49.301 13.9 271 -1.8 101550 55
2003-01-08 12:42 51°21.431 2°49.402 11.6 272 -1.8 101560 57
2003-01-08 12:43 51°21.212 2°49.496 14.6 277 -1.9 101550 58
2003-01-08 12:44 51°20.992 2°49.59 13.9 279 -1.8 101540 59
2003-01-08 12:45 51°20.771 2°49.677 13.5 263 -1.9 101560 56
2003-01-08 12:46 51°20.551 2°49.775 14.5 277 -1.9 101550 59
2003-01-08 12:47 51°20.334 2°49.893 13.2 268 -1.9 101550 57
2003-01-08 12:48 51°20.116 2°50.007 13.7 267 -1.9 101550 59
2003-01-08 12:49 51°19.9 2°50.131 14.2 268 -1.9 101540 53
2003-01-08 12:50 51°19.681 2°50.252 14 276 -2 101540 51
2003-01-08 12:51 51°19.463 2°50.376 13.2 280 -1.9 101540 57
2003-01-08 12:52 51°19.244 2°50.505 13.9 284 -1.9 101540 57
2003-01-08 12:53 51°19.02 2°50.631 12.9 266 -1.9 101550 54
2003-01-08 12:54 51°18.788 2°50.724 13.6 271 -1.9 101550 54
2003-01-08 12:55 51°18.581 2°50.806 12.4 280 -1.9 101560 52
2003-01-08 12:56 51°18.462 2°50.899 10 255 -1.9 101560 52
2003-01-08 12:57 51°18.437 2°50.97 8.8 218 -2 101570 52
2003-01-08 12:58 51°18.442 2°51.004 9.2 206 -1.9 101560 54
2003-01-08 12:59 51°18.453 2°51.013 6.1 187 -2.1 101560 47
2003-01-08 13:00 51°18.464 2°51.017 7.5 203 -2.2 101560 56
2003-01-08 13:01 51°18.473 2°51.018 8.6 195 -2.2 101540 55
2003-01-08 13:02 51°18.479 2°51.016 6.7 194 -2.3 101560 52
2003-01-08 13:03 51°18.501 2°51.03 9 182 -2.2 101540 59
2003-01-08 13:04 51°18.587 2°50.991 7.8 141 -2.2 101550 53
2003-01-08 13:05 51°18.61 2°50.765 1.7 31 -2.2 101570 53
2003-01-08 13:06 51°18.433 2°50.655 14.3 276 -2.1 101560 49
2003-01-08 13:07 51°18.256 2°50.857 15.7 267 -2 101530 54
2003-01-08 13:08 51°18.095 2°51.1 14 264 -2.1 101540 46
2003-01-08 13:09 51°17.93 2°51.346 14.4 264 -2 101520 53
2003-01-08 13:10 51°17.727 2°51.616 13.8 270 -2 101530 55
2003-01-08 13:11 51°17.548 2°51.857 13.3 263 -1.9 101540 59
2003-01-08 13:12 51°17.368 2°52.098 14 257 -1.9 101530 56
2003-01-08 13:13 51°17.193 2°52.344 16.2 260 -2 101530 50
2003-01-08 13:14 51°17.023 2°52.597 14 271 -2 101520 52
2003-01-08 13:15 51°16.853 2°52.852 15.9 261 -2 101520 51
2003-01-08 13:16 51°16.683 2°53.113 14.5 261 -2 101520 53
2003-01-08 13:17 51°16.52 2°53.378 15.4 262 -2 101520 52
2003-01-08 13:18 51°16.353 2°53.638 12.7 260 -2.1 101520 52
2003-01-08 13:19 51°16.214 2°53.913 13.6 255 -2.1 101520 55
2003-01-08 13:20 51°16.216 2°54.096 11.5 223 -2.1 101550 55
2003-01-08 13:21 51°16.243 2°54.208 9.9 235 -2.2 101550 53
2003-01-08 13:22 51°16.242 2°54.282 9.2 245 -2.2 101540 54
2003-01-08 13:23 51°16.225 2°54.288 8.9 278 -2.3 101540 52
2003-01-08 13:24 51°16.2 2°54.285 8.8 283 -2.3 101550 54
2003-01-08 13:25 51°16.176 2°54.287 8.2 275 -2.1 101550 58
2003-01-08 13:26 51°16.156 2°54.292 7.8 249 -2.1 101540 53
2003-01-08 13:27 51°16.139 2°54.301 9.6 240 -2 101530 56
2003-01-08 13:28 51°16.131 2°54.321 8.7 213 -2.1 101540 52
2003-01-08 13:29 51°16.141 2°54.33 6.2 174 -2.3 101540 51
2003-01-08 13:30 51°16.169 2°54.316 8.3 158 -2.4 101530 56
2003-01-08 13:31 51°16.206 2°54.297 7.5 165 -2.4 101540 56
2003-01-08 13:32 51°16.248 2°54.276 7.7 150 -2.4 101540 55
2003-01-08 13:33 51°16.29 2°54.235 6.9 137 -2.3 101540 61
2003-01-08 13:34 51°16.336 2°54.163 5.1 119 -2.3 101540 54
2003-01-08 13:35 51°16.335 2°53.981 0.9 308 -2.2 101560 59
2003-01-08 13:36 51°16.188 2°53.867 9.1 287 -2.2 101560 59
2003-01-08 13:37 51°15.998 2°53.933 12.4 272 -2.1 101530 60
2003-01-08 13:38 51°15.802 2°54.062 11.8 279 -2.1 101500 57
2003-01-08 13:39 51°15.612 2°54.187 12.6 282 -2.1 101520 54
2003-01-08 13:40 51°15.421 2°54.312 13.4 282 -2.2 101520 53
2003-01-08 13:41 51°15.23 2°54.441 12 276 -2.2 101520 57
2003-01-08 13:42 51°15.036 2°54.561 11.4 281 -2.2 101520 59
2003-01-08 13:43 51°14.845 2°54.662 9.8 292 -2.3 101510 56
2003-01-08 13:44 51°14.65 2°54.776 11.9 275 -2.3 101520 60
2003-01-08 13:45 51°14.478 2°54.927 13.5 269 -2.3 101510 58
2003-01-08 13:46 51°14.333 2°55.135 12.5 261 -2.3 101510 58
2003-01-08 13:47 51°14.227 2°55.307 10.3 267 -2.4 101530 57
2003-01-08 13:48 51°14.142 2°55.397 9.6 290 -2.5 101540 56
2003-01-08 13:49 51°14.046 2°55.476 7.4 288 -2.5 101540 56
2003-01-08 13:50 51°13.943 2°55.555 8.8 281 -2.5 101530 57
2003-01-08 13:51 51°13.839 2°55.632 3.6 250 -2.5 101540 56
2003-01-08 13:52 51°13.752 2°55.728 7.2 269 -2.5 101540 55
2003-01-08 13:53 51°13.691 2°55.833 6.7 258 -2.6 101530 55
2003-01-08 13:54 51°13.65 2°55.924 6.6 249 -2.6 101530 54
2003-01-08 13:55 51°13.62 2°55.992 4.1 250 -2.6 101540 53
2003-01-08 13:56 51°13.601 2°56.05 6.6 259 -2.7 101540 54
2003-01-08 13:57 51°13.597 2°56.088 4.4 267 -2.7 101540 54
2003-01-08 13:58 51°13.596 2°56.098 5.5 288 -2.7 101540 54
2003-01-08 13:59 51°13.594 2°56.102 3.8 296 -2.7 101540 54
2003-01-08 14:00 51°13.595 2°56.102 2.9 275 -2.7 101540 54